BAW64E EHRD-EGLL

Flight info

Callsign BAW64E
Flight time 0h 45m
Altitude 24000
Route ABNED L980 LOGAN
Aircraft B789/H-SDE1E2E3FGHIJ2J3J4J5M1RWXY/LB1D1

Departure

Time 2026-05-07 15:12
Airport Rotterdam The Hague Airport (EHRD)

Arrival

Time 2026-05-07 15:58
Airport London Heathrow Airport (EGLL)
Time Latitude Longitude Altitude Speed Heading
2026-05-07 14:52 51.95101 4.43500 -1 ft 0 kts 327°
2026-05-07 15:04 51.95103 4.43498 -1 ft 1 kts 327°
2026-05-07 15:05 51.95113 4.43487 1 ft 3 kts 328°
2026-05-07 15:05 51.95134 4.43470 0 ft 2 kts 343°
2026-05-07 15:05 51.95141 4.43470 0 ft 2 kts
2026-05-07 15:05 51.95165 4.43492 0 ft 5 kts 45°
2026-05-07 15:06 51.95194 4.43538 -1 ft 7 kts 21°
2026-05-07 15:06 51.95227 4.43529 -2 ft 6 kts 336°
2026-05-07 15:06 51.95277 4.43524 -4 ft 9 kts 17°
2026-05-07 15:06 51.95284 4.43528 -4 ft 1 kts 19°
2026-05-07 15:07 51.95289 4.43525 -4 ft 0 kts 319°
2026-05-07 15:07 51.95284 4.43508 -4 ft 4 kts 243°
2026-05-07 15:07 51.95260 4.43447 -3 ft 9 kts 238°
2026-05-07 15:07 51.95219 4.43341 -1 ft 13 kts 238°
2026-05-07 15:08 51.95168 4.43206 -1 ft 15 kts 239°
2026-05-07 15:08 51.95123 4.43053 1 ft 10 kts 247°
2026-05-07 15:08 51.95122 4.43047 1 ft 0 kts 247°
2026-05-07 15:08 51.95122 4.43046 1 ft 0 kts 246°
2026-05-07 15:10 51.95121 4.43044 1 ft 1 kts 247°
2026-05-07 15:10 51.95113 4.43006 1 ft 4 kts 261°
2026-05-07 15:10 51.95118 4.42969 1 ft 2 kts 296°
2026-05-07 15:11 51.95134 4.42937 1 ft 6 kts 313°
2026-05-07 15:11 51.95191 4.42874 2 ft 12 kts 342°
2026-05-07 15:11 51.95220 4.42885 2 ft 9 kts 28°
2026-05-07 15:11 51.95395 4.43281 -2 ft 84 kts 57°
2026-05-07 15:12 51.95853 4.44418 0 ft 154 kts 57°
2026-05-07 15:12 51.96470 4.46073 316 ft 186 kts 51°
2026-05-07 15:12 51.97366 4.47755 832 ft 209 kts 52°
2026-05-07 15:12 51.98008 4.49921 1349 ft 215 kts 65°
2026-05-07 15:13 51.98817 4.52005 1919 ft 223 kts 40°
2026-05-07 15:13 52.00232 4.53045 2511 ft 228 kts 11°
2026-05-07 15:13 52.01829 4.52811 3024 ft 240 kts 342°
2026-05-07 15:13 52.03192 4.51185 3064 ft 247 kts 308°
2026-05-07 15:14 52.03788 4.48778 3608 ft 226 kts 280°
2026-05-07 15:14 52.03619 4.46251 4348 ft 233 kts 248°
2026-05-07 15:14 52.02834 4.43876 5074 ft 243 kts 243°
2026-05-07 15:14 52.02263 4.41287 5794 ft 245 kts 253°
2026-05-07 15:15 52.01860 4.38568 6532 ft 249 kts 257°
2026-05-07 15:15 52.01523 4.35803 7238 ft 251 kts 257°
2026-05-07 15:15 52.01164 4.33025 7963 ft 252 kts 256°
2026-05-07 15:15 52.00781 4.30231 8719 ft 254 kts 256°
2026-05-07 15:16 52.00397 4.27425 9477 ft 256 kts 256°
2026-05-07 15:16 52.00014 4.24589 10227 ft 259 kts 257°
2026-05-07 15:16 51.99624 4.21704 10928 ft 262 kts 257°
2026-05-07 15:16 51.99229 4.18806 11664 ft 266 kts 257°
2026-05-07 15:17 51.98822 4.15816 12415 ft 276 kts 257°
2026-05-07 15:17 51.98401 4.12734 13198 ft 284 kts 257°
2026-05-07 15:17 51.97967 4.09560 13986 ft 292 kts 257°
2026-05-07 15:17 51.97523 4.06315 14752 ft 297 kts 257°
2026-05-07 15:18 51.97068 4.03011 15528 ft 302 kts 257°
2026-05-07 15:18 51.96608 3.99672 16325 ft 306 kts 257°
2026-05-07 15:18 51.96147 3.96331 17137 ft 309 kts 257°
2026-05-07 15:18 51.95675 3.92918 17970 ft 311 kts 257°
2026-05-07 15:19 51.95200 3.89493 18764 ft 312 kts 257°
2026-05-07 15:19 51.94722 3.86057 19510 ft 312 kts 257°
2026-05-07 15:19 51.94245 3.82632 20273 ft 312 kts 257°
2026-05-07 15:19 51.93766 3.79207 21066 ft 310 kts 257°
2026-05-07 15:20 51.93291 3.75805 21843 ft 308 kts 257°
2026-05-07 15:20 51.92819 3.72441 22652 ft 305 kts 257°
2026-05-07 15:20 51.92350 3.69112 23469 ft 300 kts 257°
2026-05-07 15:20 51.91887 3.65825 24029 ft 302 kts 257°
2026-05-07 15:21 51.91405 3.62408 24086 ft 321 kts 257°
2026-05-07 15:21 51.90890 3.58771 24112 ft 341 kts 257°
2026-05-07 15:21 51.90344 3.54930 24118 ft 360 kts 257°
2026-05-07 15:21 51.89767 3.50869 24120 ft 377 kts 257°
2026-05-07 15:22 51.89178 3.46738 24107 ft 384 kts 257°
2026-05-07 15:22 51.88574 3.42516 24109 ft 385 kts 257°
2026-05-07 15:22 51.87968 3.38286 24110 ft 385 kts 256°
2026-05-07 15:22 51.87361 3.34071 24118 ft 384 kts 256°
2026-05-07 15:23 51.86758 3.29882 24181 ft 387 kts 256°
2026-05-07 15:23 51.86141 3.25622 24085 ft 388 kts 256°
2026-05-07 15:23 51.85530 3.21416 24083 ft 382 kts 256°
2026-05-07 15:23 51.84938 3.17225 24085 ft 382 kts 260°
2026-05-07 15:24 51.84657 3.12940 24085 ft 384 kts 264°
2026-05-07 15:24 51.84377 3.08640 24081 ft 385 kts 263°
2026-05-07 15:24 51.84085 3.04326 24080 ft 385 kts 263°
2026-05-07 15:24 51.83805 3.00027 24084 ft 385 kts 263°
2026-05-07 15:25 51.83528 2.95718 24081 ft 385 kts 263°
2026-05-07 15:25 51.83249 2.91472 24082 ft 385 kts 263°
2026-05-07 15:25 51.82962 2.87171 24082 ft 385 kts 263°
2026-05-07 15:25 51.82674 2.82866 24081 ft 384 kts 263°
2026-05-07 15:26 51.82388 2.78573 24079 ft 384 kts 263°
2026-05-07 15:26 51.82099 2.74278 24082 ft 384 kts 263°
2026-05-07 15:26 51.81808 2.69984 24076 ft 384 kts 263°
2026-05-07 15:26 51.81515 2.65690 24081 ft 384 kts 263°
2026-05-07 15:27 51.81221 2.61397 24081 ft 384 kts 263°
2026-05-07 15:27 51.80925 2.57102 24081 ft 385 kts 263°
2026-05-07 15:27 51.80627 2.52806 24077 ft 385 kts 263°
2026-05-07 15:27 51.80331 2.48550 24080 ft 385 kts 263°
2026-05-07 15:28 51.80030 2.44254 24078 ft 385 kts 263°
2026-05-07 15:28 51.79727 2.39950 24079 ft 385 kts 263°
2026-05-07 15:28 51.79423 2.35650 24082 ft 385 kts 263°
2026-05-07 15:28 51.79117 2.31361 24078 ft 385 kts 263°
2026-05-07 15:29 51.78811 2.27071 24073 ft 385 kts 263°
2026-05-07 15:29 51.78503 2.22773 24078 ft 384 kts 263°
2026-05-07 15:29 51.78300 2.18482 24075 ft 384 kts 264°
2026-05-07 15:29 51.78015 2.14181 24075 ft 384 kts 263°
2026-05-07 15:30 51.77722 2.09902 24074 ft 384 kts 264°
2026-05-07 15:30 51.77476 2.05618 23752 ft 382 kts 264°
2026-05-07 15:30 51.77241 2.01345 23339 ft 380 kts 264°
2026-05-07 15:30 51.76986 1.97107 22920 ft 378 kts 263°
2026-05-07 15:31 51.76723 1.92900 22498 ft 376 kts 264°
2026-05-07 15:31 51.76552 1.90110 22209 ft 375 kts 264°
2026-05-07 15:31 51.76215 1.84528 21632 ft 372 kts 264°
2026-05-07 15:31 51.75961 1.80384 21212 ft 370 kts 264°
2026-05-07 15:32 51.75705 1.76259 20799 ft 368 kts 263°
2026-05-07 15:32 51.75449 1.72159 20383 ft 366 kts 263°
2026-05-07 15:32 51.75196 1.68101 19970 ft 358 kts 263°
2026-05-07 15:32 51.75032 1.65486 19686 ft 349 kts 263°
2026-05-07 15:33 51.74791 1.61661 19267 ft 337 kts 263°
2026-05-07 15:33 51.74478 1.56748 18723 ft 329 kts 263°
2026-05-07 15:33 51.74244 1.53083 18290 ft 328 kts 263°
2026-05-07 15:33 51.74010 1.49419 17780 ft 328 kts 263°
2026-05-07 15:34 51.73854 1.46996 17453 ft 327 kts 263°
2026-05-07 15:34 51.73619 1.43357 16969 ft 324 kts 263°
2026-05-07 15:34 51.73389 1.39802 16513 ft 313 kts 263°
2026-05-07 15:34 51.73161 1.36314 16079 ft 308 kts 263°
2026-05-07 15:35 51.72940 1.32939 16070 ft 301 kts 263°
2026-05-07 15:35 51.72714 1.29515 16075 ft 311 kts 263°
2026-05-07 15:35 51.72485 1.26048 16085 ft 310 kts 263°
2026-05-07 15:35 51.72255 1.22583 16082 ft 310 kts 263°
2026-05-07 15:36 51.72023 1.19102 15821 ft 315 kts 262°
2026-05-07 15:36 51.71790 1.15633 15382 ft 306 kts 263°
2026-05-07 15:36 51.71565 1.12272 14940 ft 297 kts 262°
2026-05-07 15:36 51.71342 1.08976 14493 ft 293 kts 262°
2026-05-07 15:37 51.71123 1.05763 14076 ft 291 kts 262°
2026-05-07 15:37 51.70902 1.02522 13615 ft 290 kts 262°
2026-05-07 15:37 51.70682 0.99302 13109 ft 288 kts 262°
2026-05-07 15:37 51.70462 0.96099 12630 ft 287 kts 262°
2026-05-07 15:38 51.70242 0.92918 12161 ft 282 kts 262°
2026-05-07 15:38 51.70028 0.89815 11684 ft 275 kts 262°
2026-05-07 15:38 51.69816 0.86768 11207 ft 270 kts 262°
2026-05-07 15:38 51.69608 0.83789 10751 ft 266 kts 262°
2026-05-07 15:39 51.69401 0.80839 10290 ft 264 kts 262°
2026-05-07 15:39 51.69197 0.77941 10078 ft 255 kts 262°
2026-05-07 15:39 51.68995 0.75086 10078 ft 260 kts 262°
2026-05-07 15:39 51.68788 0.72166 10085 ft 263 kts 262°
2026-05-07 15:40 51.68580 0.69236 10087 ft 264 kts 262°
2026-05-07 15:40 51.68368 0.66266 10087 ft 267 kts 262°
2026-05-07 15:40 51.68157 0.63308 10044 ft 266 kts 262°
2026-05-07 15:40 51.67941 0.60313 9702 ft 268 kts 262°
2026-05-07 15:41 51.67727 0.57344 9287 ft 267 kts 262°
2026-05-07 15:41 51.67512 0.54375 8845 ft 267 kts 262°
2026-05-07 15:41 51.67297 0.51411 8406 ft 267 kts 262°
2026-05-07 15:41 51.67081 0.48448 8072 ft 263 kts 262°
2026-05-07 15:42 51.66876 0.45634 8067 ft 253 kts 262°
2026-05-07 15:42 51.66667 0.42797 7766 ft 255 kts 262°
2026-05-07 15:42 51.66464 0.40027 7451 ft 240 kts 262°
2026-05-07 15:42 51.66273 0.37433 7104 ft 229 kts 262°
2026-05-07 15:43 51.66086 0.34913 6745 ft 225 kts 262°
2026-05-07 15:43 51.65900 0.32422 6375 ft 223 kts 262°
2026-05-07 15:43 51.65716 0.29952 6066 ft 218 kts 262°
2026-05-07 15:43 51.65536 0.27546 6081 ft 218 kts 261°
2026-05-07 15:44 51.65351 0.25089 6078 ft 222 kts 262°
2026-05-07 15:44 51.65165 0.22613 6074 ft 223 kts 262°
2026-05-07 15:44 51.64979 0.20137 6084 ft 222 kts 261°
2026-05-07 15:44 51.64790 0.17654 6083 ft 224 kts 262°
2026-05-07 15:45 51.64589 0.15167 6067 ft 222 kts 258°
2026-05-07 15:45 51.64148 0.12792 6069 ft 222 kts 251°
2026-05-07 15:45 51.63717 0.10408 5891 ft 221 kts 252°
2026-05-07 15:45 51.63301 0.08079 5574 ft 213 kts 252°
2026-05-07 15:46 51.62474 0.03596 5002 ft 208 kts 252°
2026-05-07 15:46 51.62061 0.01368 4716 ft 207 kts 252°
2026-05-07 15:46 51.61656 -0.00829 4425 ft 200 kts 252°
2026-05-07 15:47 51.61269 -0.02925 4107 ft 191 kts 252°
2026-05-07 15:47 51.60902 -0.04907 4062 ft 182 kts 252°
2026-05-07 15:47 51.60533 -0.06890 4057 ft 186 kts 252°
2026-05-07 15:47 51.60164 -0.08875 4065 ft 185 kts 252°
2026-05-07 15:48 51.59785 -0.10901 3865 ft 193 kts 252°
2026-05-07 15:48 51.59403 -0.12970 3539 ft 192 kts 252°
2026-05-07 15:48 51.59019 -0.15031 3201 ft 191 kts 252°
2026-05-07 15:48 51.58645 -0.17038 3057 ft 181 kts 252°
2026-05-07 15:49 51.58287 -0.18956 3058 ft 180 kts 252°
2026-05-07 15:49 51.57921 -0.20906 3065 ft 184 kts 252°
2026-05-07 15:49 51.57559 -0.22848 3055 ft 185 kts 252°
2026-05-07 15:49 51.57188 -0.24821 3036 ft 181 kts 252°
2026-05-07 15:50 51.56834 -0.26718 3052 ft 175 kts 252°
2026-05-07 15:50 51.56477 -0.28619 2906 ft 182 kts 252°
2026-05-07 15:50 51.56116 -0.30534 2601 ft 176 kts 252°
2026-05-07 15:50 51.55766 -0.32399 2424 ft 167 kts 252°
2026-05-07 15:51 51.55427 -0.34200 2487 ft 175 kts 252°
2026-05-07 15:51 51.55074 -0.36070 2488 ft 173 kts 252°
2026-05-07 15:51 51.54727 -0.37919 2487 ft 173 kts 252°
2026-05-07 15:51 51.54379 -0.39759 2495 ft 173 kts 252°
2026-05-07 15:52 51.54026 -0.41621 2492 ft 174 kts 252°
2026-05-07 15:52 51.53677 -0.43468 2498 ft 173 kts 252°
2026-05-07 15:52 51.53324 -0.45334 2493 ft 174 kts 252°
2026-05-07 15:52 51.52971 -0.47191 2494 ft 174 kts 252°
2026-05-07 15:53 51.52621 -0.49045 2491 ft 174 kts 252°
2026-05-07 15:53 51.52269 -0.50889 2486 ft 173 kts 252°
2026-05-07 15:53 51.51919 -0.52735 2486 ft 174 kts 252°
2026-05-07 15:53 51.51567 -0.54586 2488 ft 173 kts 252°
2026-05-07 15:54 51.51215 -0.56437 2493 ft 171 kts 252°
2026-05-07 15:54 51.50876 -0.58214 2481 ft 163 kts 252°
2026-05-07 15:54 51.50546 -0.59943 2427 ft 162 kts 252°
2026-05-07 15:54 51.50218 -0.61663 2253 ft 160 kts 252°
2026-05-07 15:55 51.49894 -0.63360 2070 ft 159 kts 252°
2026-05-07 15:55 51.49581 -0.64980 2048 ft 151 kts 250°
2026-05-07 15:55 51.49255 -0.66670 2032 ft 157 kts 252°
2026-05-07 15:55 51.48943 -0.68330 2052 ft 159 kts 252°
2026-05-07 15:56 51.48409 -0.69837 1886 ft 156 kts 218°
2026-05-07 15:56 51.47528 -0.69551 1766 ft 150 kts 147°
2026-05-07 15:56 51.47039 -0.68109 1039 ft 162 kts 99°
2026-05-07 15:56 51.47001 -0.66403 960 ft 139 kts 92°
2026-05-07 15:57 51.47195 -0.64843 962 ft 157 kts 64°
2026-05-07 15:57 51.47735 -0.63452 1201 ft 142 kts 66°
2026-05-07 15:57 51.47772 -0.61780 1174 ft 149 kts 98°
2026-05-07 15:57 51.47686 -0.60167 1320 ft 149 kts 90°
2026-05-07 15:58 51.47593 -0.59372 1190 ft 2361 kts 72°
2026-05-07 15:58 51.47883 -0.58716 1169 ft 0 kts 109°
2026-05-07 15:58 51.47922 -0.57238 117 ft 78 kts 62°
2026-05-07 15:58 51.47994 -0.57107 57 ft 0 kts 136°
2026-05-07 15:59 51.47755 -0.55628 1111 ft 207 kts 83°
2026-05-07 15:59 51.47741 -0.53441 849 ft 187 kts 92°
2026-05-07 16:00 51.47706 -0.51490 464 ft 164 kts 90°
2026-05-07 16:00 51.47732 -0.49777 209 ft 149 kts 88°
2026-05-07 16:00 51.47749 -0.48191 96 ft 113 kts 90°
2026-05-07 16:00 51.47752 -0.47266 90 ft 47 kts 91°
2026-05-07 16:01 51.47717 -0.47124 94 ft 1 kts 143°
2026-05-07 16:01 51.47698 -0.47101 96 ft 6 kts 145°
2026-05-07 16:01 51.47656 -0.47057 96 ft 8 kts 147°
2026-05-07 16:01 51.47647 -0.47048 96 ft 2 kts 148°
2026-05-07 16:02 51.47625 -0.47030 95 ft 5 kts 154°
2026-05-07 16:02 51.47601 -0.47025 96 ft 1 kts 196°
2026-05-07 16:02 51.47592 -0.47042 97 ft 4 kts 235°
2026-05-07 16:02 51.47582 -0.47117 96 ft 10 kts 264°
2026-05-07 16:03 51.47581 -0.47245 95 ft 13 kts 271°
2026-05-07 16:03 51.47584 -0.47396 94 ft 15 kts 272°
2026-05-07 16:03 51.47582 -0.47557 94 ft 15 kts 268°
2026-05-07 16:03 51.47581 -0.47724 95 ft 15 kts 270°
2026-05-07 16:04 51.47578 -0.47810 94 ft 0 kts 258°
2026-05-07 16:04 51.47577 -0.47819 91 ft 3 kts 255°
2026-05-07 16:05 51.47559 -0.47855 95 ft 5 kts 218°
2026-05-07 16:05 51.47527 -0.47875 93 ft 4 kts 182°
2026-05-07 16:05 51.47496 -0.47877 92 ft 4 kts 182°
2026-05-07 16:05 51.47478 -0.47878 93 ft 1 kts 181°
2026-05-07 16:06 51.47472 -0.47878 93 ft 1 kts 181°
2026-05-07 16:06 51.47388 -0.47877 95 ft 25 kts 178°
2026-05-07 16:06 51.47243 -0.47872 94 ft 19 kts 180°
2026-05-07 16:06 51.47112 -0.47871 94 ft 17 kts 179°
2026-05-07 16:07 51.46994 -0.47868 93 ft 17 kts 180°
2026-05-07 16:07 51.46920 -0.47903 96 ft 4 kts 234°
2026-05-07 16:07 51.46915 -0.47940 95 ft 4 kts 266°
2026-05-07 16:07 51.46914 -0.47989 95 ft 4 kts 269°
2026-05-07 16:08 51.46914 -0.48007 92 ft 0 kts 268°